Stations météo

réclame
Mon MeteoGroup
Threave, Grande-Bretagne (99090): Température de l'air & dewpoint: 14.06.2019 23:00:00 - 20.06.2019 23:00:00 (BST)Threave, Grande-Bretagne (99090): Température de l'air -20cm & Température de l'air -100cm: 14.06.2019 23:00:00 - 20.06.2019 23:00:00 (BST)Threave, Grande-Bretagne (99090): Quantités de précipitations: 14.06.2019 23:00:00 - 20.06.2019 23:00:00 (BST)
Date & Time tt [°C] td [°C] tt -20cm [°C] tt -100cm [°C] rr [mm]
20.06.2019 23:00:00 - - - - -
20.06.2019 22:00:00 - - - - -
20.06.2019 21:00:00 - - - - -
20.06.2019 20:00:00 - - - - -
20.06.2019 19:00:00 - - - - -
20.06.2019 18:00:00 - - - - -
20.06.2019 17:00:00 - - - - -
20.06.2019 16:00:00 - - - - -
20.06.2019 15:00:00 - - - - 0,0
20.06.2019 14:00:00 - - - - 0,0
20.06.2019 13:00:00 15,3 9,4 - - 0,0
20.06.2019 12:00:00 12,8 7,1 - - 0,0
20.06.2019 11:00:00 12,9 6,8 - - 0,0
20.06.2019 10:00:00 12,9 8,1 15,7 12,7 0,0
20.06.2019 09:00:00 12,4 8,0 - - 0,0
20.06.2019 08:00:00 10,9 8,0 - - 0,0
20.06.2019 07:00:00 9,8 7,6 - - 0,0
20.06.2019 06:00:00 8,8 7,4 - - 0,0
20.06.2019 05:00:00 9,1 7,7 - - 0,0
20.06.2019 04:00:00 9,7 8,2 - - 0,0
20.06.2019 03:00:00 10,7 8,4 - - 0,0
20.06.2019 02:00:00 11,4 10,7 - - 0,0
20.06.2019 01:00:00 11,1 9,8 - - 0,2
20.06.2019 00:00:00 11,4 10,0 - - 0,0
19.06.2019 23:00:00 12,0 10,5 - - 0,0
19.06.2019 22:00:00 12,3 9,9 - - 0,0
19.06.2019 21:00:00 12,8 10,1 - - 0,0
19.06.2019 20:00:00 13,6 9,9 - - 0,0
19.06.2019 19:00:00 14,5 9,2 - - 0,0
19.06.2019 18:00:00 16,9 9,5 - - 0,0
19.06.2019 17:00:00 16,0 8,1 - - 0,0
19.06.2019 16:00:00 17,1 8,7 - - 0,0
19.06.2019 15:00:00 17,5 9,6 - - 0,0
19.06.2019 14:00:00 17,6 9,6 - - 0,0
19.06.2019 13:00:00 16,4 9,4 - - 0,0
19.06.2019 12:00:00 17,5 10,3 - - 0,0
19.06.2019 11:00:00 16,8 10,5 - - 0,0
19.06.2019 10:00:00 15,4 10,1 15,2 12,5 0,0
19.06.2019 09:00:00 12,5 12,3 - - 0,0
19.06.2019 08:00:00 9,9 9,7 - - 0,0
19.06.2019 07:00:00 8,4 8,2 - - 0,0
19.06.2019 06:00:00 8,1 7,8 - - 0,0
19.06.2019 05:00:00 7,1 6,8 - - 0,0
19.06.2019 04:00:00 6,5 6,1 - - 0,0
19.06.2019 03:00:00 6,8 6,3 - - 0,0
19.06.2019 02:00:00 7,1 6,4 - - 0,0
19.06.2019 01:00:00 8,7 8,2 - - 0,0
19.06.2019 00:00:00 8,6 7,8 - - 0,0
18.06.2019 23:00:00 10,0 8,9 - - 0,0
18.06.2019 22:00:00 11,5 9,2 - - 0,0
18.06.2019 21:00:00 14,1 9,2 - - 0,0
18.06.2019 20:00:00 15,4 7,9 - - 0,0
18.06.2019 19:00:00 15,6 8,8 - - 0,0
18.06.2019 18:00:00 15,7 8,8 - - 0,0
18.06.2019 17:00:00 16,8 7,8 - - 0,0
18.06.2019 16:00:00 16,5 8,8 - - 0,0
18.06.2019 15:00:00 16,6 8,5 - - 0,0
18.06.2019 14:00:00 16,1 9,9 - - 0,0
18.06.2019 13:00:00 15,9 10,1 - - 0,0
18.06.2019 12:00:00 16,2 10,8 - - 0,0
18.06.2019 11:00:00 15,4 10,0 - - 0,0
18.06.2019 10:00:00 14,6 10,5 14,7 12,4 0,0
18.06.2019 09:00:00 13,7 10,3 - - 0,0
18.06.2019 08:00:00 11,7 11,2 - - 0,0
18.06.2019 07:00:00 9,9 9,8 - - 0,0
18.06.2019 06:00:00 7,5 7,2 - - 0,0
18.06.2019 05:00:00 7,3 6,9 - - 0,0
18.06.2019 04:00:00 7,5 7,1 - - 0,0
18.06.2019 03:00:00 8,0 7,4 - - 0,0
18.06.2019 02:00:00 8,9 7,9 - - 0,0
18.06.2019 01:00:00 11,0 10,4 - - 0,0
18.06.2019 00:00:00 11,0 10,0 - - 0,0
17.06.2019 23:00:00 11,3 10,0 - - 0,0
17.06.2019 22:00:00 12,3 10,3 - - 0,0
17.06.2019 21:00:00 12,9 10,5 - - 0,0
17.06.2019 20:00:00 13,4 10,6 - - 0,0
17.06.2019 19:00:00 14,2 10,5 - - 0,0
17.06.2019 18:00:00 15,2 10,4 - - 0,0
17.06.2019 17:00:00 14,7 9,9 - - 0,0
17.06.2019 16:00:00 14,4 11,0 - - 0,0
17.06.2019 15:00:00 16,1 11,7 - - 0,0
17.06.2019 14:00:00 15,5 11,0 - - 0,0
17.06.2019 13:00:00 15,0 10,9 - - 0,0
17.06.2019 12:00:00 15,1 11,1 - - 0,0
17.06.2019 11:00:00 15,0 11,2 - - 0,0
17.06.2019 10:00:00 13,5 10,2 14,4 12,2 0,0
17.06.2019 09:00:00 12,8 9,8 - - 0,0
17.06.2019 08:00:00 12,5 10,3 - - 0,0
17.06.2019 07:00:00 12,1 10,1 - - 0,0
17.06.2019 06:00:00 11,6 9,9 - - 0,0
17.06.2019 05:00:00 11,1 9,6 - - 0,0
17.06.2019 04:00:00 11,1 9,8 - - 0,0
17.06.2019 03:00:00 11,4 9,9 - - 0,0
17.06.2019 02:00:00 12,0 10,7 - - 0,6
17.06.2019 01:00:00 12,1 11,1 - - 0,2
17.06.2019 00:00:00 12,4 11,3 - - 0,0
16.06.2019 23:00:00 12,4 11,7 - - 0,0
16.06.2019 22:00:00 12,3 11,6 - - 3,0
16.06.2019 21:00:00 12,2 11,0 - - 0,6
16.06.2019 20:00:00 12,7 10,7 - - 0,0
16.06.2019 19:00:00 13,4 10,4 - - 0,0
16.06.2019 18:00:00 12,8 9,8 - - 0,0
16.06.2019 17:00:00 12,6 10,1 - - 0,0
16.06.2019 16:00:00 11,3 7,9 - - 0,6
16.06.2019 15:00:00 12,9 8,7 - - 0,0
16.06.2019 14:00:00 13,7 9,4 - - 0,0
16.06.2019 13:00:00 14,3 9,4 - - 0,0
16.06.2019 12:00:00 13,9 8,8 - - 0,0
16.06.2019 11:00:00 13,5 8,5 - - 0,0
16.06.2019 10:00:00 12,6 8,4 14,2 12,2 0,0
16.06.2019 09:00:00 12,1 8,2 - - 0,0
16.06.2019 08:00:00 12,1 9,4 - - 0,0
16.06.2019 07:00:00 10,7 9,7 - - 0,0
16.06.2019 06:00:00 9,8 8,9 - - 0,0
16.06.2019 05:00:00 9,6 8,7 - - 0,0
16.06.2019 04:00:00 10,1 9,2 - - 0,0
16.06.2019 03:00:00 9,6 9,1 - - 0,0
16.06.2019 02:00:00 8,2 7,5 - - 0,0
16.06.2019 01:00:00 9,5 8,9 - - 0,0
16.06.2019 00:00:00 9,0 8,2 - - 0,0
15.06.2019 23:00:00 9,4 8,1 - - 0,0
15.06.2019 22:00:00 10,3 8,8 - - 0,0
15.06.2019 21:00:00 11,6 8,9 - - 0,0
15.06.2019 20:00:00 11,9 8,6 - - 0,0
15.06.2019 19:00:00 12,7 9,0 - - 0,0
15.06.2019 18:00:00 13,6 9,2 - - 0,0
15.06.2019 17:00:00 13,9 8,9 - - 0,0
15.06.2019 16:00:00 14,1 9,8 - - 0,0
15.06.2019 15:00:00 13,9 9,7 - - 0,0
15.06.2019 14:00:00 13,7 9,0 - - 0,0
15.06.2019 13:00:00 14,7 10,0 - - 0,0
15.06.2019 12:00:00 13,3 10,8 - - 0,2
15.06.2019 11:00:00 11,7 10,3 - - 0,2
15.06.2019 10:00:00 12,8 9,4 14,0 12,2 0,0
15.06.2019 09:00:00 12,5 10,5 - - 0,0
15.06.2019 08:00:00 11,4 10,7 - - 0,0
15.06.2019 07:00:00 10,7 9,7 - - 0,0
15.06.2019 06:00:00 10,8 9,8 - - 1,0
15.06.2019 05:00:00 10,6 9,8 - - 1,4
15.06.2019 04:00:00 10,9 9,7 - - 0,6
15.06.2019 03:00:00 11,3 9,2 - - 0,2
15.06.2019 02:00:00 11,4 8,5 - - 0,0
15.06.2019 01:00:00 11,8 8,3 - - 0,0
15.06.2019 00:00:00 11,6 8,5 - - 0,0
14.06.2019 23:00:00 11,7 8,0 - - 0,0

tt = Température de l'air
td = dewpoint
tt -20cm = Température de l'air -20cm
tt -100cm = Température de l'air -100cm
rr = Quantités de précipitations

stations d'obs. à proximité